Regional Weather Roundup
Issued by NWS Goodland, KS

Home | Current Version | Previous Version | Text Only | Print | Product List | Glossary Off
Versions: 1 2 3 4 5 6 7 8 9 10 11 12 13 14 15 16 17 18 19 20 21 22 23 24 25 26 27 28 29 30 31 32 33 34 35 36 37 38 39 40 41 42 43 44 45 46 47 48 49 50

000
ASUS43 KGLD 270059
RWRGLD

GOODLAND FORECAST AREA HOURLY WEATHER ROUNDUP
NATIONAL WEATHER SERVICE GOODLAND KS
700 PM MDT WED APR 26 2017

...OFFICIAL OBSERVATIONS...

CITY           SKY/WX    TMP DP  RH WIND       PRES   REMARKS
GOODLAND KS    CLEAR     56  29  35 NE6       29.68F
HILL CITY KS   CLEAR     55  33  43 N5        29.69S
IMPERIAL NEB   CLEAR     54  28  36 NE7       29.67F
MCCOOK NEB     CLEAR     53  29  39 N10       29.68S
AKRON CO       CLOUDY    52  32  46 N9        29.68S
BURLINGTON CO  NOT AVBL
LIMON CO       CLOUDY    49  32  52 SW15      29.71R
$$

...UNOFFICIAL OBSERVATIONS...

CITY           SKY/WX    TMP DP  RH WIND       PRES   REMARKS
LENORA KS        N/A     52  32  46 MISG        N/A
NORTON KS      CLEAR     48  28  46 N7        29.68S
SHARON SPRINGS   N/A     56  30  37 CALM        N/A
TRENTON NEB      N/A     52  32  46 NE6         N/A
KIT CARSON CO    N/A     54  32  43 MISG        N/A
YUMA CO        FAIR      52  32  46 CALM      29.67S
$$




USA.gov is the U.S. government's official web portal to all federal, state and local government web resources and services.